Regional Weather Roundup
Issued by NWS Newport/Morehead, NC

Current Version | Previous Version | Graphics & Text | Print | Product List | Glossary Off
Versions: 1 2 3 4 5 6 7 8 9 10 11 12 13 14 15 16 17 18 19 20 21 22 23 24 25 26 27 28 29 30 31 32 33 34 35 36 37 38 39 40 41 42 43 44 45 46 47 48 49 50

000
ASUS42 KMHX 250312
RWRMHX
WEATHER ROUNDUP FOR EASTERN NORTH CAROLINA
NATIONAL WEATHER SERVICE NEWPORT/MOREHEAD CITY NC
1100 PM EDT FRI APR 24 2015

NOTE: "FAIR" INDICATES FEW OR NO CLOUDS BELOW 12,000 FEET
WITH NO SIGNIFICANT WEATHER AND/OR OBSTRUCTIONS TO VISIBILITY

NCZ015>017-031-032-045>047-102-103-250400-
NORTH COAST

CITY           SKY/WX    TMP DP  RH WIND       PRES   REMARKS
EDENTON        CLEAR     50  39  67 SW3       29.97S
ELIZABETH CITY CLEAR     51  39  63 E3        29.97R
KITTY HAWK     CLEAR     48  40  74 SE6       29.97S
MANTEO         CLEAR     48  41  76 SE6       29.98S

$$

NCZ045>047-081-094-103-104-250400-
CENTRAL COAST

CITY           SKY/WX    TMP DP  RH WIND       PRES   REMARKS
FRISCO         CLEAR     53  43  68 SW5       29.99S
SWANQUARTER      N/A     55 N/A N/A W1        29.94S

$$

NCZ095-097-098-100-101-250400-
SOUTHERN COAST

CITY           SKY/WX    TMP DP  RH WIND       PRES   REMARKS
BEAUFORT       PTCLDY    61  48  62 SW12      30.00S
CEDAR ISLAND     N/A     55 N/A N/A S5        30.03S
JACKSONVILLE   PTCLDY    56  43  61 SW6       30.00S
PINEY ISLAND   CLEAR    N/A N/A N/A SW7       30.00R
WILMINGTON     PTCLDY    57  45  64 SW6       30.00F


$$

NCZ011>013-027>030-043-044-078>080-089-090>093-098-250400-
COASTAL PLAIN

CITY           SKY/WX    TMP DP  RH WIND       PRES   REMARKS
AHOSKIE        CLEAR     43  39  86 CALM      29.97S
CLINTON        MOCLDY    52  47  83 CALM      29.99F
ELIZABETHTOWN  PTCLDY    56  42  58 S5        30.00S
GOLDSBORO      MOCLDY    52  41  66 CALM      29.96F
GREENVILLE     CLEAR     50  43  76 CALM      30.00S
HAVELOCK       PTCLDY    52  43  71 SW8       30.01S
KENANSVILLE    MOCLDY    48  41  78 CALM      30.00S
KINSTON        PTCLDY    48  44  85 CALM      29.99S
NEW BERN       PTCLDY    53  42  66 SW5       30.01S
RICHLANDS      PTCLDY    52  41  66 SW5       30.01S
ROCKY MOUNT    CLEAR     48  40  73 CALM      29.97F
WASHINGTON     CLEAR     49  38  67 CALM      29.98S
WHITEVILLE     PTCLDY    56  43  61 CALM      30.00S

$$

AMZ130-135-150-152-154-156-158-170-250-252-270-ANZ085-086-088-633-658-670-250400-
MARINE OBSERVATIONS

STATION/POSITION TIME  TEMP    WIND        PRES    WAVE   SWELL
                       AIR SEA DIR/SP/G            HT/PER HT/PER
                 (UTC) (F)     (DEG/KT/KT) (MB)    (FT/S) (FT/S)
CHESAPEAKE LIGHT 0300   51     170/ 11/ 12 1015.5
64 E VA BEACH    0250   54 63  250/  4/  6 1014.7    3/ 5   3/ 5
DUCK             0200   51 55  140/ 13/ 14 1013.9
2 E DUCK         0211      54                N/A     3/ 6   2/14
10 NE DUCK       NOT AVBL
OREGON INLET     0200   50 57  110/  6/  8 1015.4
HATTERAS CG      0200   60 66  190/  3/  6 1014.9
DIAMOND BUOY     0250   62 73  230/  8/ 12 1015.5    5/ 9   5/ 9
CAPE LOOKOUT     0300   62     240/  8/ 10 1015.7
BEAUFORT LAB     0200   61 65  250/  6/ 10 1015.0
27 SE WRIGHTSVLE 0200   62 71  260/ 12/ 14   N/A
5 SE WRIGHTSVLE  0208   63 65  240/ 14/ 19 1016.3
225 S CAPE HAT   0250   63 70   10/  8/ 12 1017.2    7/ 8   7/ 8
41 SE CHARLESTON 0250   67 71  180/  6/  8 1016.5    3/ 9   3/ 9

$$


USA.gov is the U.S. government's official web portal to all federal, state and local government web resources and services.